Voltar ao catálogo

NAVSTAR 54

USA 177

AtivoNavegaçãoHEO
NORAD 28190·PAYLOAD·🇺🇸 United States

Lançado Mar 20, 2004 de Cape Canaveral Space Force Station

Loading…

Próximas Passagens (próximas 24 horas)

TLE

AtualizadoSource: CelesTrak SupGP

Época: Sep 16, 2026, 16:44 UTC

1 28190C 04009A   26259.69756944  .00000000  00000+0  00000+0 0  2594
2 28190  54.7589 271.9826 0118006 176.5832 230.3115  2.00573948    17

Acompanhe NAVSTAR 54 em tempo real com AllMySat

Download on the App Store